Wetbulb
57.06 57.96 58.94 60.18 61.39 65.76 66.49 64.19 62.14 61.59 60.51 59.60 57.60 56.36 55.22 55.78 55.22 55.36 54.89 54.92 54.07 54.09 53.24 52.34 52.08 52.35 51.97 51.43 52.16 50.88 49.86 48.38 49.95 50.30 49.83 50.36 50.37 50.15 48.83 48.13 46.85 47.62 47.18
56.19 57.31 57.96 58.75 61.94 65.09 66.06 64.09 62.08 61.08 60.18 59.68 58.23 56.81 55.88 55.24 54.79 54.21 53.82 53.98 53.32 53.20 53.13 51.90 51.18 51.61 50.63 50.54 49.91 50.09 48.31 47.28 48.25 47.30 48.70 46.29 47.74 48.63 49.10 46.35 45.98 44.69 45.23
54.97 55.96 56.42 57.13 62.20 63.82 65.20 63.30 61.84 60.68 60.05 59.70 58.61 56.95 56.49 55.09 53.36 52.52 52.14 52.43 52.73 52.57 52.10 51.83 51.18 50.86 50.85 49.35 48.70 48.26 47.69 46.07 45.99 46.21 45.01 43.68 43.40 46.02 47.19 45.03 43.12 43.25 42.29
54.52 54.35 55.33 56.85 63.29 63.95 65.68 63.17 61.58 60.07 59.78 59.82 57.55 55.32 53.59 51.78 52.30 51.83 51.86 51.36 51.89 51.23 51.35 51.12 50.61 50.13 49.54 48.36 47.16 47.81 46.69 46.66 43.96 44.57 47.24 44.07 42.50 40.05 40.92 43.01 41.65 42.21 42.24
52.40 52.61 53.65 55.40 57.23 64.36 64.51 62.78 61.08 59.84 59.23 58.77 57.36 55.83 54.02 53.25 52.83 51.84 50.64 49.70 49.96 50.16 50.21 50.15 49.61 48.77 48.08 46.55 46.14 44.87 44.29 43.76 42.48 41.95 41.84 42.71 40.50 39.88 38.33 37.83 37.52 40.09 39.59
51.48 52.68 53.46 55.40 56.83 62.28 63.44 61.72 59.79 58.91 58.49 58.21 56.85 54.98 53.93 53.21 51.31 50.52 48.77 48.26 47.92 48.15 48.79 49.25 47.95 46.50 45.21 44.00 43.70 43.46 42.99 42.08 41.78 40.97 40.54 39.58 38.30 36.19 36.30 35.18 35.36 35.20 39.11
51.47 51.38 50.99 51.94 54.44 57.30 58.12 59.38 58.46 57.12 57.02 56.73 55.31 54.19 53.98 53.16 51.43 49.59 48.61 47.12 46.35 46.11 46.64 46.92 45.79 44.15 43.62 43.48 43.21 42.51 42.40 41.98 40.65 40.85 39.74 39.55 38.14 38.32 37.25 35.85 33.97 33.27 36.62
51.21 50.95 50.65 51.43 52.36 55.14 56.38 56.23 55.52 54.42 53.88 53.65 52.80 53.36 53.42 52.44 51.07 49.90 48.98 47.48 46.36 45.70 45.86 43.26 42.63 42.13 41.83 41.39 41.86 41.64 41.60 41.70 40.56 39.05 39.77 38.41 37.50 37.31 36.47 35.48 33.88 33.06 35.71
49.46 49.37 50.55 50.95 51.69 52.40 54.23 55.50 53.74 52.14 52.37 51.94 51.90 51.94 50.77 50.17 49.59 48.31 47.23 44.34 43.37 43.61 42.13 41.02 39.57 39.41 39.85 39.67 39.81 39.11 39.27 39.69 39.58 38.51 38.06 36.90 38.27 37.83 37.88 36.40 35.21 32.71 29.50
48.60 48.73 48.79 49.71 50.53 51.87 50.88 53.46 53.70 49.67 48.64 48.93 47.84 47.12 46.98 46.31 45.12 44.03 41.70 41.50 41.39 40.89 40.15 39.64 39.10 38.39 38.65 38.53 38.47 37.76 38.86 38.09 37.96 36.94 36.56 36.63 36.28 36.45 35.65 35.15 35.35 34.49 31.58
48.69 48.25 48.52 49.29 49.92 49.28 47.70 45.62 45.20 45.13 45.02 45.00 45.40 44.55 43.67 43.15 42.67 41.44 40.59 41.01 40.62 39.73 39.01 38.15 37.52 37.21 36.60 37.16 36.31 36.67 36.98 35.96 35.79 35.85 35.45 35.08 35.84 34.48 34.06 34.33 34.57 33.24 32.25
47.93 48.02 48.24 48.49 47.95 47.03 46.08 44.31 43.64 42.56 42.55 42.80 43.12 42.56 42.06 41.96 40.34 40.13 40.27 39.78 38.63 38.32 36.98 36.25 35.61 34.91 35.09 35.50 35.12 35.09 35.61 34.62 33.93 34.02 33.65 33.90 35.62 33.51 33.31 33.31 31.79 31.50 31.88
46.02 48.57 48.17 47.57 46.17 45.64 44.73 44.28 43.34 42.23 42.15 41.90 41.19 40.90 40.82 39.99 39.41 39.29 38.79 38.02 36.89 36.15 35.72 35.20 34.02 33.48 33.73 34.00 33.92 34.30 34.18 33.63 33.40 33.91 33.22 33.02 32.91 30.83 30.78 31.29 30.61 30.07 31.46
45.51 46.83 45.91 44.96 46.41 45.59 44.02 43.41 42.47 42.24 41.48 40.55 39.75 38.74 38.28 38.12 37.99 37.99 37.08 36.53 36.22 35.30 35.08 34.95 34.09 33.62 33.63 33.94 34.03 33.83 32.66 32.33 32.48 33.03 31.15 29.45 27.76 27.64 26.70 28.91 26.73 27.56 27.19
44.79 45.22 47.31 46.40 47.23 45.59 44.61 43.54 42.14 41.95 41.45 40.07 38.91 38.09 38.05 37.85 37.86 37.42 36.51 36.33 36.48 36.25 35.41 34.41 33.28 32.75 32.49 32.54 32.72 32.63 31.82 30.39 30.29 31.49 28.54 27.05 27.78 27.98 26.43 25.87 23.79 24.27 23.94
43.92 44.98 47.20 47.07 47.35 45.74 44.21 43.29 41.93 41.06 41.39 39.81 38.52 38.23 36.55 35.10 33.91 34.06 34.06 34.71 34.81 35.29 34.37 32.62 31.88 31.69 29.95 28.56 29.40 32.44 31.02 30.24 29.54 28.86 26.83 26.65 28.06 27.29 27.00 26.58 25.50 23.81 21.77
44.71 44.84 46.13 47.95 47.75 46.86 44.92 43.08 42.17 41.91 40.64 38.16 36.10 34.82 34.30 33.62 33.83 34.66 34.66 34.33 33.85 33.23 32.24 32.36 30.34 27.60 26.29 28.08 28.64 28.42 29.95 29.75 29.19 28.97 28.50 27.71 28.54 27.21 25.99 26.73 28.51 27.56 26.39
44.74 44.99 45.60 46.60 48.80 48.48 45.92 44.63 42.93 40.52 37.99 36.32 35.29 34.96 34.09 33.56 33.80 33.95 33.53 33.26 32.81 32.14 31.73 31.35 29.27 26.91 26.29 27.34 26.91 27.17 30.31 28.80 28.38 27.98 27.83 27.44 23.33 23.23 22.97 23.05 23.63 24.42 25.15
44.58 45.12 46.06 46.63 47.00 47.62 47.87 44.35 41.57 39.93 37.86 35.41 34.41 34.00 33.64 32.95 32.95 32.95 33.13 33.26 32.71 30.97 30.64 31.37 28.46 26.04 24.62 26.40 25.58 25.60 28.72 27.14 25.98 25.82 23.88 24.65 20.74 22.51 22.35 21.63 21.85 21.92 23.54
45.07 44.76 45.71 46.57 46.76 47.22 47.59 45.36 41.06 39.17 36.26 35.23 34.19 33.89 33.10 32.46 31.86 32.37 32.42 32.42 31.79 30.36 30.47 30.55 28.34 27.05 24.37 25.79 25.25 26.23 28.90 26.32 24.85 24.98 22.59 22.95 20.46 20.89 20.47 19.12 18.66 19.74 19.06
43.63 44.26 45.05 44.60 44.64 45.51 47.28 44.10 40.97 38.68 36.79 35.40 33.93 33.04 32.84 32.78 32.56 31.68 31.82 31.66 31.01 29.94 29.36 29.71 28.33 26.48 25.45 24.75 25.46 27.08 27.61 25.58 26.38 25.14 23.58 21.23 21.07 19.49 19.02 18.41 18.43 16.78 17.64
43.04 43.87 43.76 43.49 43.08 42.74 41.78 38.86 37.36 36.29 35.35 33.58 32.68 32.32 32.30 32.30 31.77 31.27 31.58 31.31 29.12 27.91 27.60 27.89 28.05 26.66 25.75 24.90 24.99 25.72 26.13 25.60 23.85 21.11 22.20 18.46 19.32 18.07 17.52 17.26 17.88 17.77 17.54
42.60 43.76 43.53 42.62 41.51 40.57 38.89 35.13 33.40 34.34 33.19 32.51 31.77 31.73 31.88 31.31 31.37 30.45 30.22 28.39 27.61 26.26 26.04 26.42 26.46 25.36 24.90 24.35 24.05 23.56 21.86 22.34 21.17 20.97 16.70 17.87 17.38 17.71 17.64 20.01 18.92 15.26 15.63
42.66 43.44 42.97 41.80 39.67 39.26 36.98 34.55 33.58 33.35 32.14 31.09 30.95 30.94 30.42 30.68 31.22 30.44 29.45 27.71 26.67 26.16 26.19 25.71 25.80 25.67 24.16 22.04 21.40 19.91 18.92 20.56 18.44 15.66 14.50 13.89 16.51 12.73 12.24 12.78 17.19 15.83 15.16
42.61 43.50 42.36 41.63 39.52 38.45 35.57 34.11 33.80 33.49 31.21 31.01 30.91 30.62 30.68 29.66 29.46 28.96 27.90 27.58 29.64 28.42 26.36 26.67 27.52 25.45 24.58 23.96 24.12 23.38 21.69 21.72 18.01 14.76 13.26 14.36 17.44 16.08 14.48 15.81 14.08 15.08 13.74
42.78 42.98 42.03 40.25 38.85 36.90 33.71 33.85 33.98 33.68 32.52 31.30 30.71 30.22 29.55 29.17 28.38 26.75 26.59 29.90 29.43 30.38 30.50 30.76 28.75 27.00 29.51 28.72 26.36 25.05 23.18 21.17 18.83 11.62 11.42 14.51 14.31 14.15 13.70 11.73 11.07 11.57 11.06
MSLP
997.43 997.87 997.84 998.35 999.11 999.99 1001.18 1002.30 1003.63 1005.29 1006.92 1008.18 1009.02 1009.55 1009.97 1010.40 1011.04 1011.76 1012.55 1013.07 1013.27 1013.30 1013.52 1014.25 1014.69 1014.61 1015.21 1015.72 1016.06 1016.26 1016.49 1016.60 1016.43 1016.67 1017.31 1017.82 1018.06 1018.34 1018.68 1019.07 1019.58 1019.72 1020.15
996.84 997.22 997.53 997.51 998.02 999.36 1001.19 1002.69 1003.80 1004.91 1006.09 1007.09 1008.26 1009.08 1009.82 1010.43 1011.16 1012.00 1012.68 1013.16 1013.40 1013.45 1013.58 1014.26 1014.62 1014.78 1015.36 1016.00 1016.24 1016.33 1016.65 1017.11 1017.12 1017.18 1017.20 1018.06 1018.51 1018.45 1018.69 1019.29 1019.93 1020.20 1020.37
997.03 997.74 997.73 998.03 997.45 998.37 999.76 1001.43 1003.40 1005.10 1006.13 1006.96 1008.05 1008.90 1009.76 1010.50 1011.10 1011.94 1012.67 1013.31 1013.62 1013.72 1013.86 1014.35 1014.79 1015.10 1015.68 1016.25 1016.41 1016.49 1016.85 1017.24 1017.58 1017.38 1017.50 1017.55 1017.70 1018.56 1018.96 1019.60 1020.01 1020.34 1020.90
998.25 998.90 999.18 998.94 998.25 998.37 999.71 1001.09 1002.20 1003.61 1005.34 1006.75 1007.60 1008.31 1009.00 1009.99 1010.96 1011.91 1012.62 1013.20 1013.49 1013.73 1014.10 1014.64 1015.06 1015.46 1016.01 1016.65 1016.96 1017.16 1017.05 1017.31 1017.84 1017.89 1018.00 1018.23 1018.37 1018.67 1019.66 1020.22 1020.36 1020.65 1020.89
999.38 999.85 999.89 999.96 999.71 999.36 999.87 1000.89 1002.20 1003.36 1004.43 1005.39 1006.51 1007.85 1008.74 1009.73 1010.69 1011.75 1012.66 1013.34 1013.75 1013.90 1014.37 1014.86 1015.24 1015.67 1016.25 1016.82 1017.25 1017.61 1017.73 1017.84 1018.00 1018.37 1018.62 1018.73 1018.99 1018.96 1019.38 1020.30 1020.75 1020.98 1021.09
999.85 999.90 1000.08 1000.52 1000.75 1000.38 1000.66 1001.43 1002.68 1003.16 1004.52 1005.75 1006.06 1006.75 1008.14 1009.21 1010.28 1011.42 1012.64 1013.59 1014.01 1014.44 1014.73 1015.09 1015.63 1016.29 1016.80 1017.19 1017.62 1018.00 1018.30 1018.39 1018.72 1019.06 1019.34 1019.47 1019.59 1019.95 1019.85 1020.34 1020.83 1021.02 1021.06
1000.56 1000.68 1000.60 1000.73 1001.39 1002.13 1002.37 1002.82 1003.26 1003.98 1004.53 1005.51 1006.62 1007.18 1007.37 1008.53 1009.74 1011.04 1012.42 1013.43 1014.20 1014.87 1015.32 1015.67 1016.17 1016.76 1017.29 1017.61 1017.85 1018.24 1018.52 1018.90 1019.14 1019.61 1019.95 1020.13 1020.58 1020.42 1020.46 1020.85 1021.14 1021.27 1020.72
1001.55 1001.38 1001.42 1002.07 1001.90 1002.30 1003.37 1004.05 1004.25 1004.65 1005.19 1005.86 1006.64 1007.39 1008.13 1008.45 1009.31 1010.45 1011.75 1013.11 1014.17 1015.14 1015.98 1016.49 1016.91 1017.34 1017.76 1017.87 1017.91 1018.45 1019.18 1019.49 1019.47 1020.16 1020.12 1020.58 1021.00 1021.39 1021.49 1021.54 1021.84 1021.51 1020.80
1002.14 1002.73 1002.86 1002.78 1003.24 1003.13 1003.63 1004.88 1005.52 1005.54 1005.87 1006.63 1007.09 1008.11 1008.63 1009.25 1010.05 1010.70 1011.70 1013.23 1014.58 1015.59 1016.70 1017.43 1018.28 1018.37 1018.64 1017.91 1018.17 1018.45 1019.41 1019.83 1020.14 1020.88 1020.73 1021.05 1021.43 1021.94 1022.31 1022.02 1021.90 1022.08 1021.65
1002.41 1003.39 1004.20 1004.20 1003.84 1004.12 1004.92 1005.48 1006.20 1006.82 1007.00 1007.36 1007.83 1008.54 1009.59 1010.41 1011.36 1011.78 1013.01 1014.12 1015.29 1016.40 1017.37 1017.76 1018.50 1018.96 1018.75 1018.93 1018.47 1019.01 1019.36 1019.80 1020.54 1021.39 1021.56 1021.51 1021.76 1022.34 1022.85 1022.75 1022.37 1022.51 1022.49
1002.13 1003.10 1004.12 1005.07 1004.55 1005.46 1006.09 1006.75 1007.56 1008.15 1008.54 1008.90 1009.22 1009.56 1010.25 1010.97 1011.89 1012.77 1013.84 1014.57 1016.07 1017.02 1017.60 1018.00 1018.36 1019.24 1019.49 1019.44 1019.50 1019.53 1019.82 1020.19 1020.87 1021.30 1021.95 1021.99 1022.24 1022.34 1023.00 1022.84 1022.89 1023.11 1022.84
1003.60 1003.11 1003.86 1004.84 1005.30 1005.95 1006.89 1007.75 1008.32 1009.01 1009.54 1010.01 1010.42 1010.87 1011.29 1011.67 1012.57 1013.27 1014.25 1015.03 1016.33 1017.18 1017.68 1018.20 1018.89 1019.22 1018.89 1019.36 1019.59 1020.34 1020.86 1020.85 1021.50 1021.65 1021.96 1022.22 1022.25 1022.77 1023.27 1023.13 1023.05 1023.44 1023.15
1004.24 1003.07 1003.74 1004.88 1005.79 1006.98 1007.47 1008.11 1008.93 1009.37 1010.09 1010.96 1011.37 1011.80 1012.38 1012.78 1013.19 1013.93 1014.78 1015.73 1016.74 1017.55 1018.36 1018.90 1018.66 1018.70 1019.51 1019.88 1020.48 1020.76 1021.29 1021.40 1021.53 1021.94 1022.23 1022.49 1022.61 1023.45 1023.78 1023.43 1023.16 1023.55 1023.39
1004.14 1003.46 1003.75 1004.77 1006.00 1007.57 1008.03 1008.68 1009.39 1009.69 1010.67 1011.38 1012.29 1012.40 1012.99 1013.58 1013.85 1014.82 1015.56 1016.32 1017.23 1017.98 1018.46 1018.79 1019.13 1019.31 1019.58 1020.11 1020.52 1020.66 1021.33 1021.82 1022.12 1022.22 1022.72 1023.50 1023.66 1024.02 1024.35 1023.94 1023.81 1023.96 1023.99
1003.01 1002.21 1002.88 1003.06 1005.40 1007.12 1008.10 1008.79 1009.03 1010.10 1011.14 1012.05 1012.62 1012.93 1013.65 1014.32 1014.61 1015.29 1016.49 1016.94 1017.53 1018.16 1018.46 1018.99 1019.17 1019.39 1019.72 1020.17 1020.43 1020.89 1021.59 1022.12 1022.36 1022.63 1023.63 1024.21 1024.33 1024.55 1024.89 1024.39 1024.66 1024.69 1024.80
1002.29 1001.46 1001.17 1003.70 1004.78 1006.03 1007.22 1008.54 1008.62 1010.35 1011.27 1012.29 1013.01 1013.38 1014.04 1014.79 1015.19 1015.93 1016.85 1017.55 1017.88 1018.40 1018.76 1019.02 1019.36 1019.63 1020.34 1020.99 1020.85 1020.69 1021.81 1021.98 1022.32 1023.09 1023.64 1023.90 1024.24 1024.62 1024.74 1024.67 1025.13 1025.31 1025.13
1002.07 1001.90 1002.62 1003.29 1004.50 1005.13 1005.82 1006.71 1008.19 1009.75 1010.97 1011.96 1013.00 1013.58 1014.18 1014.90 1015.61 1016.37 1016.82 1017.33 1018.11 1018.48 1018.61 1019.02 1019.67 1020.55 1021.06 1021.34 1020.96 1021.59 1021.54 1021.58 1022.48 1022.87 1023.01 1023.23 1023.88 1024.60 1024.75 1024.90 1024.76 1025.13 1024.83
1001.74 1002.42 1003.02 1002.89 1003.42 1004.26 1005.32 1006.59 1007.96 1009.16 1010.73 1012.04 1012.80 1013.56 1014.28 1014.89 1015.54 1016.11 1016.74 1017.33 1018.01 1018.40 1018.79 1019.19 1019.93 1020.65 1021.20 1021.33 1021.67 1021.57 1021.37 1021.97 1022.57 1022.69 1023.00 1023.55 1024.62 1025.11 1025.43 1025.34 1025.31 1024.76 1024.34
1001.73 1002.16 1003.01 1003.27 1003.59 1003.91 1004.79 1006.24 1008.01 1009.17 1010.41 1011.62 1012.47 1013.36 1014.02 1014.82 1015.43 1015.99 1016.56 1017.28 1017.94 1018.27 1018.52 1019.13 1019.99 1020.86 1021.55 1021.73 1021.76 1021.81 1021.85 1022.38 1022.76 1023.39 1023.81 1024.03 1024.82 1025.47 1025.77 1025.44 1025.30 1025.14 1024.97
1002.00 1002.74 1003.36 1003.72 1003.84 1004.34 1004.92 1005.94 1007.76 1008.93 1010.01 1011.17 1012.29 1013.31 1013.82 1014.34 1015.53 1015.91 1016.68 1017.38 1018.04 1018.25 1018.36 1018.98 1020.02 1021.15 1021.72 1021.94 1022.28 1022.26 1022.07 1022.50 1023.29 1023.89 1024.39 1024.82 1025.05 1025.40 1026.12 1026.17 1025.90 1025.55 1025.72
1002.30 1003.31 1003.59 1003.89 1004.48 1005.14 1004.97 1006.05 1007.87 1008.94 1009.96 1011.09 1012.02 1013.07 1013.86 1014.42 1015.13 1015.58 1016.80 1017.45 1017.96 1018.14 1018.43 1018.97 1019.84 1020.99 1021.90 1022.39 1022.38 1022.33 1022.41 1023.14 1023.41 1023.84 1024.22 1024.99 1025.19 1025.89 1026.37 1026.36 1026.01 1026.28 1026.27
1002.14 1003.11 1003.65 1004.36 1005.12 1005.89 1006.81 1007.68 1008.63 1009.42 1010.29 1011.20 1012.11 1012.84 1013.62 1014.38 1015.04 1015.75 1016.73 1017.60 1018.00 1018.34 1018.51 1019.21 1020.02 1021.03 1021.99 1022.71 1022.76 1022.73 1023.12 1023.24 1023.58 1024.20 1024.60 1025.26 1025.39 1025.99 1026.33 1026.34 1026.13 1026.15 1026.14
1002.13 1003.01 1003.67 1004.66 1005.60 1006.62 1007.54 1008.49 1009.46 1009.97 1010.68 1011.48 1012.24 1012.86 1013.62 1014.38 1015.18 1015.82 1016.64 1017.20 1017.73 1018.36 1018.67 1019.52 1020.06 1021.06 1022.08 1022.72 1023.17 1023.37 1023.64 1023.71 1024.14 1024.58 1025.35 1025.44 1025.65 1025.77 1026.09 1025.71 1025.87 1026.22 1026.20
1001.89 1002.83 1003.90 1004.83 1005.86 1006.90 1007.91 1009.04 1009.86 1010.56 1011.05 1011.75 1012.49 1013.18 1013.83 1014.68 1015.38 1016.14 1016.73 1017.34 1017.61 1018.27 1019.02 1019.60 1020.16 1020.86 1021.79 1022.76 1023.31 1023.42 1023.53 1023.78 1024.49 1024.95 1025.43 1025.55 1025.43 1025.52 1025.76 1025.81 1025.64 1026.14 1026.03
1002.05 1002.98 1004.33 1005.20 1006.22 1007.18 1008.32 1009.25 1010.10 1010.85 1011.56 1012.10 1012.77 1013.52 1014.11 1014.71 1015.49 1016.44 1016.98 1017.45 1017.88 1018.42 1018.73 1019.39 1019.89 1020.38 1021.30 1021.86 1022.47 1022.79 1023.27 1023.56 1024.23 1024.79 1025.06 1025.18 1025.21 1025.12 1025.28 1025.57 1025.38 1025.88 1025.89
1002.41 1003.41 1004.65 1005.74 1006.64 1007.69 1008.76 1009.48 1010.16 1010.90 1011.43 1012.14 1012.90 1013.64 1014.36 1015.04 1015.84 1016.57 1017.40 1017.72 1018.16 1018.59 1018.94 1019.33 1019.57 1020.18 1020.91 1021.33 1022.01 1022.55 1023.11 1023.57 1024.03 1024.51 1024.96 1024.86 1024.75 1024.99 1025.39 1025.66 1025.90 1025.78 1025.62
Wind_Speed
12 14 11 11 12 7 20 23 22 19 14 9 10 9 9 6 7 7 10 6 5 5 6 5 5 3 4 5 3 1 3 4 4 3 4 4 3 4 5 6 5 5 6
14 16 15 13 13 14 18 18 19 19 16 11 10 7 9 6 5 7 7 6 5 5 5 6 5 6 5 4 1 1 2 3 3 2 4 4 3 3 4 6 6 5 6
4 8 10 14 14 15 20 21 19 16 14 12 9 8 7 6 5 8 6 5 5 5 7 5 5 5 5 4 3 3 4 3 2 4 2 1 2 7 3 7 5 6 5
2 5 9 10 2 9 14 19 20 20 17 14 12 12 10 10 8 7 7 6 6 6 6 6 6 5 5 5 4 4 3 3 5 3 4 6 4 3 4 3 4 5 6
4 6 7 9 12 7 7 16 17 17 18 17 12 11 11 7 8 8 11 7 5 6 7 6 6 6 6 6 7 5 6 5 5 4 3 3 4 4 4 4 3 4 3
5 3 5 6 9 4 4 10 11 14 15 15 10 15 12 11 11 10 9 7 5 5 6 7 6 8 7 6 5 6 7 6 5 4 4 4 3 2 3 3 2 3 3
4 3 6 6 7 13 10 4 7 8 11 13 9 7 11 10 15 15 10 10 7 6 6 7 7 7 7 6 6 6 6 6 4 5 4 5 4 3 3 2 2 1 2
3 5 7 4 4 5 8 6 6 6 7 8 8 6 6 4 10 13 11 8 7 7 8 9 9 9 8 7 5 7 5 6 6 7 6 5 4 4 4 2 1 2 1
5 6 7 6 4 4 3 5 6 6 7 7 7 5 6 6 10 11 12 10 11 9 10 10 9 7 6 7 7 7 6 5 6 4 6 5 4 4 4 3 2 1 1
7 6 6 5 5 6 13 8 6 8 8 9 10 10 11 11 11 12 14 13 12 12 10 11 9 7 6 4 8 6 6 6 5 4 5 5 3 4 3 3 3 3 2
7 8 7 4 8 12 11 12 12 11 10 9 10 12 12 13 13 14 14 14 12 11 11 9 10 8 8 5 6 7 6 7 6 6 4 4 5 5 3 2 3 3 3
5 7 6 5 7 9 8 9 9 9 8 9 9 10 12 13 14 14 13 13 12 10 10 10 11 10 9 8 7 4 5 6 5 6 5 3 5 6 3 2 3 3 3
21 6 7 5 7 6 8 7 8 9 9 8 10 10 10 12 13 14 14 13 12 11 10 9 10 11 8 8 6 6 5 5 5 5 5 5 6 6 4 2 5 4 5
11 15 10 6 9 5 8 7 8 9 9 10 9 10 11 11 12 12 13 13 11 10 10 10 10 10 11 10 8 7 7 5 6 6 9 9 7 6 5 6 7 6 5
18 15 14 11 10 10 8 5 8 9 9 10 10 10 10 10 11 11 10 10 10 9 10 10 10 9 7 6 7 7 7 8 6 7 9 7 8 10 6 5 5 5 4
16 10 3 13 11 13 12 11 10 10 11 9 10 10 11 10 9 10 10 9 10 8 10 10 9 8 8 7 8 6 7 8 7 6 8 8 8 7 7 6 3 1 3
6 11 7 8 8 12 15 14 14 12 10 11 10 11 12 11 11 11 11 11 10 10 10 10 9 9 6 7 8 3 5 5 6 6 8 6 7 9 6 3 7 12 8
9 11 6 2 11 10 13 13 15 15 13 12 12 13 12 13 12 11 12 11 10 10 9 10 11 9 6 7 5 3 5 6 5 6 6 9 9 8 6 4 5 5 3
5 5 5 5 5 2 13 17 15 14 13 12 12 12 13 12 12 11 12 10 9 10 10 10 13 9 6 8 4 5 5 7 7 8 8 7 10 10 9 4 5 5 3
8 6 4 1 5 7 9 17 15 14 14 14 13 12 12 15 11 8 9 8 9 10 8 9 13 13 7 8 4 5 3 7 4 8 8 11 9 9 7 4 4 4 7
8 1 4 5 7 7 7 11 10 10 10 11 13 12 12 12 11 12 8 8 8 10 9 8 12 12 8 6 6 8 6 3 2 4 6 5 9 6 4 4 4 3 5
9 5 4 7 7 8 8 7 6 7 11 12 13 13 14 11 10 12 10 8 10 9 8 9 8 9 9 9 8 10 9 3 3 3 4 6 6 3 1 1 3 4 4
4 7 4 8 7 8 7 7 5 9 11 12 13 14 13 12 11 12 10 9 9 7 7 7 7 8 7 5 10 10 9 7 4 5 5 5 2 2 4 7 5 3 3
7 6 4 5 7 7 8 9 9 9 11 12 12 11 12 12 10 7 7 7 8 8 7 7 6 7 8 7 5 4 4 7 4 4 4 5 4 3 3 2 4 3 3
4 8 5 4 6 7 9 10 9 9 9 11 11 10 9 11 9 7 7 5 3 7 8 7 7 8 8 8 11 10 6 5 4 4 1 2 4 3 1 1 0 2 1
4 9 7 6 6 8 9 8 10 9 12 10 9 8 8 8 7 8 5 9 7 10 12 10 6 3 10 18 17 15 14 12 7 2 2 3 2 1 1 1 1 2 2
Wind_Direction
239 253 230 214 203 194 155 163 163 164 163 181 182 176 172 163 150 153 140 168 149 152 125 122 165 144 95 95 149 137 139 26 6 120 128 112 106 130 128 98 55 56 93
236 231 238 211 185 162 157 163 167 164 171 175 183 173 169 154 148 119 143 142 154 148 137 139 149 110 101 108 54 7 112 88 30 292 170 155 154 152 132 103 98 26 48
33 354 352 326 172 165 160 162 164 167 174 175 176 160 170 153 139 142 141 140 143 160 110 106 102 109 124 116 104 29 39 145 66 40 46 294 157 132 117 101 96 80 83
64 5 349 336 228 161 152 163 165 166 174 183 182 180 179 173 156 148 142 147 152 128 117 106 110 106 90 102 92 30 22 3 135 79 66 64 58 54 135 105 113 118 105
43 18 6 343 332 164 129 164 169 168 172 182 180 178 176 165 150 151 143 140 132 119 120 116 110 103 91 75 71 57 39 20 66 45 51 70 75 31 66 135 126 107 114
63 31 36 3 334 57 95 139 160 163 170 185 185 171 171 163 154 149 147 144 130 124 122 118 102 96 96 101 98 82 67 60 65 67 40 44 45 50 64 76 76 139 142
121 74 64 27 12 50 50 81 132 161 158 172 173 167 158 157 157 144 149 147 144 136 129 114 106 101 100 94 95 87 75 73 68 68 70 59 43 49 49 41 40 60 240
133 107 91 60 24 62 90 62 101 121 120 122 123 120 109 129 143 150 149 147 146 125 95 89 95 96 101 97 83 83 76 70 66 56 68 78 57 37 26 58 16 276 223
80 61 77 61 40 33 70 121 81 94 120 107 96 103 94 114 143 125 124 106 107 107 105 95 91 91 89 97 100 97 92 90 76 66 59 93 79 40 28 18 45 325 59
136 106 66 67 72 62 47 44 88 85 85 98 103 101 100 95 102 99 105 108 108 105 109 121 119 108 89 101 84 108 98 95 95 64 64 72 84 91 58 330 35 21 34
115 97 88 74 72 70 69 73 68 73 74 75 98 106 112 112 112 109 114 114 119 130 141 126 115 124 121 91 81 75 95 97 105 109 87 89 65 79 61 343 42 27 48
328 66 86 90 83 93 88 89 89 83 83 93 98 106 116 118 118 121 122 123 128 123 125 122 130 123 110 109 113 106 106 100 116 105 115 137 115 110 44 44 61 49 23
312 145 120 114 109 120 113 118 124 114 112 112 117 119 120 123 123 124 126 125 126 123 126 128 110 103 98 99 104 109 114 113 106 109 107 69 79 60 11 20 60 42 9
277 290 126 151 121 137 138 149 132 131 129 129 131 124 127 126 124 124 124 128 132 136 141 135 135 133 150 155 151 128 110 107 84 74 75 69 58 57 3 50 36 25 3
243 210 163 141 151 147 151 160 142 142 148 146 143 135 130 128 126 124 130 136 142 136 131 131 141 135 129 129 132 141 131 123 123 117 107 100 109 99 68 65 36 24 19
259 286 126 142 165 155 159 164 144 163 158 155 149 136 130 128 128 129 133 139 140 140 144 141 139 134 105 101 70 104 148 144 140 136 128 145 151 152 131 107 141 96 47
60 30 350 147 170 173 167 165 160 156 160 147 141 145 143 143 147 147 149 143 141 139 139 142 119 103 134 152 100 81 156 138 137 150 144 158 102 69 37 35 301 218 215
132 155 220 41 171 181 162 155 159 149 153 162 162 160 159 155 155 151 148 144 144 147 158 142 127 128 145 142 116 37 125 112 102 86 80 104 90 63 51 4 321 2 27
96 90 71 42 8 338 170 158 162 164 162 170 168 167 158 154 153 157 150 151 156 157 147 153 134 128 147 148 91 16 134 119 101 83 48 62 89 63 39 7 0 342 34
89 83 88 74 64 18 343 156 168 170 170 172 169 162 158 151 156 144 135 142 148 154 149 150 133 140 137 139 91 19 124 116 126 127 112 88 88 70 46 15 348 353 31
95 85 100 91 70 41 357 142 153 174 165 155 153 152 152 144 135 129 142 146 156 164 163 131 127 130 134 140 115 33 104 108 134 129 122 109 93 79 54 33 42 23 333
128 122 119 85 78 74 83 103 129 124 139 146 152 148 147 144 142 143 144 157 174 159 151 132 132 126 130 136 121 74 107 96 99 87 85 100 87 98 57 358 31 351 328
68 97 102 113 103 101 111 119 127 134 140 147 152 149 144 142 144 143 156 171 163 157 144 148 142 133 136 133 145 125 110 71 57 82 99 96 113 167 245 218 235 257 266
136 120 119 130 117 120 120 130 138 142 143 144 146 144 140 140 140 137 157 170 162 152 159 159 156 150 146 148 158 143 137 136 136 139 167 195 199 233 254 329 267 209 233
120 131 119 98 124 135 127 140 139 141 143 141 139 141 141 141 136 144 168 159 138 167 163 172 167 165 175 169 169 160 171 157 89 118 189 214 195 204 181 218 357 261 251
105 124 128 132 137 141 147 144 149 155 152 148 143 140 140 134 134 138 147 128 135 159 168 181 155 145 177 159 142 124 125 116 106 92 225 233 185 157 185 270 284 271 296